Simultaneous Nadir Overpasses (SNOs) Predictions

Prediction of SNOs between FY3D and TERRA Satellite Orbit:

Table of predicted SNOs for the next 14.0 days since TLE Epoch: 7/9/2022
Index Date (FY3D) Time (FY3D) Lat,Lon (FY3D) SZA (FY3D ) Date (TERRA) Time (TERRA) Lat,Lon (TERRA) SZA (TERRA ) Distance(km) Time Diff (sec)
1 07/10/2022 07:33:23 -71.70,-113.58 130.61 07/10/2022 07:34:10 -71.68,-113.61 130.64 2.65 47
2 07/10/2022 08:24:08 71.58, 53.96 49.27 07/10/2022 08:23:37 71.59, 53.88 49.28 3.02 31
3 07/12/2022 23:00:29 71.71,-165.33 49.76 07/12/2022 23:01:04 71.73,-165.28 49.77 2.69 35
4 07/12/2022 23:51:11 -71.61, 2.16 130.34 07/12/2022 23:50:34 -71.61, 2.15 130.35 0.88 37
5 07/15/2022 14:27:31 -71.69, 142.96 129.86 07/15/2022 14:28:02 -71.68, 142.88 129.87 2.94 31
6 07/15/2022 15:18:17 71.62, -49.60 50.07 07/15/2022 15:17:28 71.64, -49.55 50.09 2.44 49
7 07/18/2022 05:54:36 71.71, 91.19 50.60 07/18/2022 05:54:55 71.70, 91.16 50.59 1.10 19
8 07/18/2022 06:45:19 -71.66,-101.40 129.45 07/18/2022 06:44:24 -71.64,-101.31 129.47 3.69 55
9 07/20/2022 20:31:06 72.31,-129.01 51.70 07/20/2022 20:32:15 72.19,-127.39 51.55 56.42 69
10 07/20/2022 21:21:38 -71.69, 39.48 128.94 07/20/2022 21:21:52 -71.70, 39.40 128.93 3.25 14
11 07/20/2022 22:12:24 71.62,-153.09 51.01 07/20/2022 22:11:18 71.64,-153.05 51.03 2.65 66



Historial Predications of SNOs between FY3D and TERRA
